KF4WSW-13 Weather Reports


time (UTC)temp
C
wind
direction
speed
KPH
gust
KPH
rain 1hr
cm
rain 24hr
cm
rain mn
cm
humidity
%
barometer
mb
20260504150941 23 78 11.3 14.5 0.00 0.00 0.00 60 1015.8
20260504150437 23 94 12.9 16.1 0.00 0.00 0.00 59 1015.8
20260504140904 23 90 17.7 22.5 0.00 0.00 0.00 67 1015.5
20260504140400 23 92 8.0 11.3 0.00 0.00 0.00 67 1015.5
20260504130325 21 102 16.1 17.7 0.00 0.00 0.00 72 1015.1
20260504120248 19 78 6.4 11.3 0.00 0.00 0.00 76 1014.9
20260504110716 17 98 4.8 8.0 0.00 0.00 0.00 82 1014.4
20260504110212 17 54 4.8 4.8 0.00 0.00 0.00 83 1014.5
20260504100130 17 107 6.4 8.0 0.00 0.00 0.00 84 1014.3
20260504081523 18 50 1.6 3.2 0.00 0.00 0.00 81 1014.2
20260504081019 18 77 4.8 8.0 0.00 0.00 0.00 81 1014.3
20260504080516 18 93 8.0 11.3 0.00 0.00 0.00 81 1014.2
20260504050328 21 92 6.4 8.0 0.00 0.00 0.00 77 1015.2
20260504045825 21 93 4.8 4.8 0.00 0.00 0.00 77 1015.2
20260504045320 21 72 4.8 4.8 0.00 0.00 0.00 77 1015.4
20260504044817 21 84 3.2 3.2 0.00 0.00 0.00 76 1015.3
20260504044315 21 104 8.0 9.7 0.00 0.00 0.00 76 1015.1
20260504043812 21 87 9.7 11.3 0.00 0.00 0.00 76 1015.2
20260504043309 21 86 8.0 9.7 0.00 0.00 0.00 75 1015.0
20260504042806 21 100 9.7 11.3 0.00 0.00 0.00 75 1015.4
20260504042304 21 103 8.0 9.7 0.00 0.00 0.00 74 1015.5
20260504041759 21 85 9.7 11.3 0.00 0.00 0.00 74 1015.7
20260504041255 22 85 9.7 11.3 0.00 0.00 0.00 74 1015.6
20260504040751 22 99 8.0 11.3 0.00 0.00 0.00 73 1015.9
20260504040249 22 122 4.8 4.8 0.00 0.00 0.00 71 1015.9
20260504035744 22 219 4.8 4.8 0.00 0.00 0.00 71 1015.8
20260504035242 22 179 1.6 1.6 0.00 0.00 0.00 72 1015.9
20260504034739 21 154 3.2 3.2 0.00 0.00 0.00 70 1015.9
20260504034237 21 287 0.0 1.6 0.00 0.00 0.00 70 1016.0
20260504033734 21 279 0.0 0.0 0.00 0.00 0.00 70 1015.7
20260504033231 21 291 1.6 1.6 0.00 0.00 0.00 70 1015.8
20260504032728 21 340 0.0 0.0 0.00 0.00 0.00 69 1015.9
20260504032225 22 299 0.0 0.0 0.00 0.00 0.00 70 1015.9
20260504031722 21 42 0.0 0.0 0.00 0.00 0.00 70 1015.8
20260504031220 21 308 1.6 3.2 0.00 0.00 0.00 69 1015.9
20260504030715 21 3 1.6 3.2 0.00 0.00 0.00 70 1015.7
20260504030213 21 324 3.2 4.8 0.00 0.00 0.00 69 1015.8
20260504025709 21 64 3.2 8.0 0.00 0.00 0.00 70 1015.6
20260504025206 22 86 9.7 11.3 0.00 0.00 0.00 69 1015.6
20260504024703 22 87 4.8 8.0 0.00 0.00 0.00 69 1015.6
20260504024159 22 76 3.2 3.2 0.00 0.00 0.00 68 1015.4
20260504023656 22 58 3.2 3.2 0.00 0.00 0.00 69 1015.4
20260504023152 22 39 1.6 4.8 0.00 0.00 0.00 69 1015.4
20260504022648 22 29 1.6 3.2 0.00 0.00 0.00 69 1015.1
20260504022144 22 305 1.6 3.2 0.00 0.00 0.00 69 1015.3
20260504021643 22 270 1.6 1.6 0.00 0.00 0.00 69 1015.1
20260504021139 22 3 0.0 0.0 0.00 0.00 0.00 69 1015.2
20260504020636 22 323 0.0 1.6 0.00 0.00 0.00 70 1015.1
20260504020132 22 58 3.2 3.2 0.00 0.00 0.00 69 1015.0
20260504015629 22 278 1.6 1.6 0.00 0.00 0.00 70 1015.0
20260504015125 22 58 3.2 3.2 0.00 0.00 0.00 70 1014.9
20260504014621 22 303 1.6 1.6 0.00 0.00 0.00 71 1014.9
20260504014118 22 315 1.6 1.6 0.00 0.00 0.00 71 1014.8
20260504013616 22 338 1.6 3.2 0.00 0.00 0.00 71 1014.8
20260504013113 22 272 1.6 1.6 0.00 0.00 0.00 71 1014.7
20260504012610 22 276 0.0 1.6 0.00 0.00 0.00 71 1014.4
20260504012108 22 292 0.0 1.6 0.00 0.00 0.00 71 1014.5
20260504011604 22 276 1.6 1.6 0.00 0.00 0.00 70 1014.3
20260504011100 22 273 0.0 0.0 0.00 0.00 0.00 70 1014.3
20260504010556 22 273 0.0 1.6 0.00 0.00 0.00 70 1014.3
20260504010052 22 285 3.2 4.8 0.00 0.00 0.00 69 1014.3
20260504005549 22 272 1.6 3.2 0.00 0.00 0.00 70 1014.2
20260504005047 22 305 1.6 3.2 0.00 0.00 0.00 70 1014.1
20260504004544 22 273 1.6 1.6 0.00 0.00 0.00 69 1014.1
20260504004041 22 356 3.2 4.8 0.00 0.00 0.00 68 1014.1
20260504003537 22 292 4.8 4.8 0.00 0.00 0.00 68 1013.9
20260504003034 22 321 8.0 9.7 0.00 0.00 0.00 68 1013.9
20260504002531 22 276 1.6 3.2 0.00 0.00 0.00 68 1013.7
20260504002029 22 307 3.2 3.2 0.00 0.00 0.00 69 1014.0
20260504001526 22 322 6.4 8.0 0.00 0.00 0.00 68 1013.7
20260504001022 23 355 8.0 9.7 0.00 0.00 0.00 68 1013.5
20260504000520 23 3 4.8 8.0 0.00 0.00 0.00 67 1013.8
20260504000017 23 353 9.7 11.3 0.00 0.00 0.00 68 1013.7
20260503235515 23 290 6.4 8.0 0.00 0.00 0.00 67 1013.5
20260503235011 23 287 1.6 3.2 0.00 0.00 0.00 67 1013.5
20260503234509 23 333 9.7 11.3 0.00 0.00 0.00 67 1013.6
20260503234008 23 309 4.8 8.0 0.00 0.00 0.00 67 1013.6
20260503233503 23 319 8.0 11.3 0.00 0.00 0.00 65 1013.7
20260503232959 23 342 11.3 12.9 0.00 0.00 0.00 66 1013.6
20260503232456 23 333 8.0 11.3 0.00 0.00 0.00 67 1013.6
20260503231954 23 344 11.3 12.9 0.00 0.00 0.00 67 1013.6
20260503231452 23 330 11.3 12.9 0.00 0.00 0.00 67 1013.7
20260503230948 23 317 9.7 12.9 0.00 0.00 0.00 66 1013.8
20260503230445 23 344 6.4 12.9 0.00 0.00 0.00 66 1014.0
20260503225942 23 342 8.0 8.0 0.00 0.00 0.00 66 1013.5
20260503225439 23 319 9.7 11.3 0.00 0.00 0.00 66 1013.6
20260503224934 23 333 11.3 16.1 0.00 0.00 0.00 67 1013.6
20260503224432 23 337 9.7 12.9 0.00 0.00 0.00 66 1013.5
20260503223930 23 326 9.7 12.9 0.00 0.00 0.00 66 1013.5
20260503223427 23 331 11.3 12.9 0.00 0.00 0.00 66 1013.6
20260503222922 23 356 11.3 14.5 0.00 0.00 0.00 66 1013.7
20260503222421 23 359 14.5 16.1 0.00 0.00 0.00 66 1013.8
20260503221919 23 356 11.3 12.9 0.00 0.00 0.00 66 1013.4
20260503221417 23 0 12.9 14.5 0.00 0.00 0.00 65 1013.7
20260503220913 23 319 12.9 16.1 0.00 0.00 0.00 67 1013.5
20260503220410 23 344 12.9 16.1 0.00 0.00 0.00 68 1013.6
20260503215907 23 350 12.9 14.5 0.00 0.00 0.00 65 1013.6
20260503215404 23 348 8.0 12.9 0.00 0.00 0.00 65 1013.6
20260503214902 23 336 11.3 12.9 0.00 0.00 0.00 67 1013.7
20260503214359 23 322 11.3 12.9 0.00 0.00 0.00 67 1013.6
20260503213856 24 327 14.5 16.1 0.00 0.00 0.00 64 1013.7
20260503213354 23 338 11.3 11.3 0.00 0.00 0.00 63 1013.5
20260503212850 23 339 9.7 12.9 0.00 0.00 0.00 66 1013.7
20260503212348 23 348 14.5 16.1 0.00 0.00 0.00 65 1013.8
20260503211845 23 339 19.3 20.9 0.00 0.00 0.00 66 1013.5
20260503211342 23 356 12.9 14.5 0.00 0.00 0.00 64 1013.8
20260503210837 23 329 14.5 16.1 0.00 0.00 0.00 65 1013.9
20260503210335 23 328 14.5 16.1 0.00 0.00 0.00 63 1013.5
20260503205829 23 347 9.7 12.9 0.00 0.00 0.00 66 1013.9
20260503205326 23 315 8.0 9.7 0.00 0.00 0.00 65 1013.8
20260503204823 23 351 9.7 11.3 0.00 0.00 0.00 66 1013.6
20260503204320 23 349 14.5 22.5 0.00 0.00 0.00 64 1013.6
20260503203818 24 355 12.9 14.5 0.00 0.00 0.00 63 1013.7
20260503203315 23 296 9.7 12.9 0.00 0.00 0.00 65 1013.5
20260503202812 23 347 14.5 14.5 0.00 0.00 0.00 64 1013.7
20260503202310 23 347 11.3 12.9 0.00 0.00 0.00 65 1013.7
20260503201808 23 0 14.5 20.9 0.00 0.00 0.00 64 1014.0
20260503201304 24 319 14.5 20.9 0.00 0.00 0.00 64 1013.9
20260503200802 24 315 8.0 12.9 0.00 0.00 0.00 65 1014.3
20260503200257 24 2 12.9 16.1 0.00 0.00 0.00 63 1013.8
20260503195755 23 355 9.7 11.3 0.00 0.00 0.00 64 1014.2
20260503195251 24 336 16.1 17.7 0.00 0.00 0.00 63 1014.4
20260503194749 24 342 16.1 20.9 0.00 0.00 0.00 64 1014.5
20260503194245 24 305 8.0 11.3 0.00 0.00 0.00 62 1014.3
20260503193741 24 336 12.9 14.5 0.00 0.00 0.00 63 1014.3
20260503193237 24 347 12.9 14.5 0.00 0.00 0.00 62 1014.2
20260503192733 24 332 11.3 14.5 0.00 0.00 0.00 62 1014.8
20260503192228 24 349 11.3 12.9 0.00 0.00 0.00 61 1014.7
20260503191725 25 330 14.5 16.1 0.00 0.00 0.00 62 1014.6
20260503191222 24 337 8.0 9.7 0.00 0.00 0.00 60 1014.9
20260503190719 24 5 11.3 14.5 0.00 0.00 0.00 64 1015.2
20260503190216 24 349 11.3 12.9 0.00 0.00 0.00 61 1014.8
20260503185713 24 347 9.7 12.9 0.00 0.00 0.00 63 1015.1
20260503185208 24 342 16.1 17.7 0.00 0.00 0.00 63 1015.1
20260503184703 24 0 16.1 17.7 0.00 0.00 0.00 62 1015.1
20260503184200 24 308 4.8 4.8 0.00 0.00 0.00 64 1015.4
20260503183656 25 286 4.8 4.8 0.00 0.00 0.00 62 1015.4
20260503183154 24 329 8.0 11.3 0.00 0.00 0.00 61 1015.5
20260503182652 23 342 11.3 16.1 0.00 0.00 0.00 66 1015.3
20260503182150 25 283 0.0 1.6 0.00 0.00 0.00 57 1015.7
20260503181646 25 272 1.6 1.6 0.00 0.00 0.00 53 1015.8
20260503181143 24 15 1.6 1.6 0.00 0.00 0.00 60 1015.8
20260503180640 24 78 8.0 9.7 0.00 0.00 0.00 56 1015.7
20260503180138 23 327 1.6 1.6 0.00 0.00 0.00 59 1015.7
20260503175635 23 72 14.5 17.7 0.00 0.00 0.00 61 1015.9
20260503175132 23 80 8.0 9.7 0.00 0.00 0.00 62 1015.8
20260503174628 23 135 6.4 9.7 0.00 0.00 0.00 64 1016.0
20260503174126 24 72 3.2 4.8 0.00 0.00 0.00 59 1015.9
20260503173620 23 58 8.0 12.9 0.00 0.00 0.00 59 1016.0
20260503173117 23 106 9.7 12.9 0.00 0.00 0.00 62 1016.1
20260503172614 23 92 12.9 12.9 0.00 0.00 0.00 59 1016.3
20260503172112 23 20 4.8 8.0 0.00 0.00 0.00 65 1016.3
20260503171608 24 294 3.2 4.8 0.00 0.00 0.00 59 1016.0
20260503171106 23 38 1.6 3.2 0.00 0.00 0.00 64 1016.1
20260503170602 23 266 1.6 1.6 0.00 0.00 0.00 60 1016.1